Buffalo, NY

3:30 AM EST on November 15, 2019 (GMT -0500)
Buffalo Niagara International

Weather History for KBUF - September, 2019

Change the Weather History Date:

Saturday, September 7, 2019

  Actual Average Record
Temperature  
Mean Temperature 62 °F 65 °F  
Max Temperature 70 °F 74 °F 91 °F (2007)
Min Temperature 54 °F 57 °F 39 °F (1962)
Degree Days  
Heating Degree Days 3 2  
Month to date heating degree days 5 13  
Since 1 July heating degree days 8 40  
Cooling Degree Days 0 3  
Month to date cooling degree days 12 22  
Year to date cooling degree days 557 509  
Growing Degree Days 12 (Base 50)    
Moisture  
Dew Point 54 °F    
Average Humidity 79    
Maximum Humidity 100    
Minimum Humidity 57    
Precipitation  
Precipitation T in 0.11 in 1.46 in (1999)
Month to date precipitation 1.85 0.80  
Year to date precipitation 30.22 25.96  
Snow  
Snow 0.00 in 0.00 in 0.00 in ()
Month to date snowfall 0.0 0.0  
Since 1 July snowfall 0.0 0.0  
Since 1 September snowfall 0.0 0.0  
Snow Depth 0.00 in    
Sea Level Pressure  
Sea Level Pressure 29.90 in    
Wind  
Wind Speed 7 mph (West)    
Max Wind Speed 20 mph    
Max Gust Speed 29 mph    
Visibility 8 miles    
Events Fog , Rain    
T = Trace of Precipitation, MM = Missing Value Source: NWS Daily Summary

Daily Weather History Graph

Daily Weather History Graph

Search for Another Location

Airport or City:

Astronomy

Sep. 07, 2019 Rise Set
Actual Time 6:45 AM EDT 7:39 PM EDT
Civil Twilight 6:16 AM EDT 8:08 PM EDT
Nautical Twilight 5:42 AM EDT 8:42 PM EDT
Astronomical Twilight 5:06 AM EDT 9:18 PM EDT
Moon 4:00 PM EDT (9/7) 12:29 AM EDT (9/7)
Length of Visible Light 13h 51m
Length of Day
12h 53m
Waxing Gibbous, 65% of the Moon is Illuminated
Sep 7
Waxing Gibbous
Sep 14
Full
Sep 21
Last Quarter
Sep 28
New
Oct 5
First Quarter

Hourly Weather History & Observations

Time (EDT) Temp. Dew Point Humidity Pressure Visibility Wind Dir Wind Speed Gust Speed Precip Events Conditions
12:54 AM 57.0 °F 55.0 °F 93% 29.88 in 10.0 mi NNW 4.6 mph - N/A   Mostly Cloudy
1:40 AM 57.9 °F 55.9 °F 93% 29.89 in 10.0 mi North 4.6 mph - N/A   Mostly Cloudy
1:54 AM 57.9 °F 55.9 °F 93% 29.88 in 10.0 mi North 3.5 mph - N/A   Mostly Cloudy
2:11 AM 57.0 °F 55.0 °F 93% 29.89 in 10.0 mi North 4.6 mph - N/A   Scattered Clouds
2:54 AM 57.0 °F 54.0 °F 89% 29.88 in 10.0 mi Calm Calm - N/A   Partly Cloudy
3:54 AM 57.0 °F 54.0 °F 89% 29.88 in 10.0 mi Calm Calm - N/A   Mostly Cloudy
4:54 AM 55.9 °F 53.1 °F 90% 29.88 in 10.0 mi Calm Calm - N/A   Partly Cloudy
5:36 AM 54.0 °F 52.0 °F 93% 29.89 in 2.0 mi SSW 3.5 mph - N/A   Partly Cloudy
5:39 AM 54.0 °F 52.0 °F 93% 29.89 in 1.0 mi SSW 3.5 mph - N/A   Mist
5:43 AM 54.0 °F 52.0 °F 93% 29.89 in 0.5 mi SSW 3.5 mph - N/A Fog Fog
5:49 AM 53.6 °F 51.8 °F 94% 29.89 in 0.2 mi South 3.5 mph - N/A Fog Fog
5:54 AM 54.0 °F 53.1 °F 97% 29.90 in 0.2 mi SSW 3.5 mph - N/A Fog Fog
6:47 AM 55.0 °F 53.1 °F 93% 29.91 in 0.5 mi SW 3.5 mph - N/A Fog Fog
6:52 AM 55.4 °F 53.6 °F 94% 29.91 in 2.0 mi SW 3.5 mph - N/A   Mostly Cloudy
6:54 AM 55.0 °F 53.1 °F 93% 29.91 in 4.0 mi SW 4.6 mph - N/A   Mostly Cloudy
7:54 AM 55.9 °F 54.0 °F 93% 29.91 in 10.0 mi South 5.8 mph - N/A   Mostly Cloudy
8:54 AM 60.1 °F 55.9 °F 86% 29.92 in 10.0 mi WSW 4.6 mph - N/A   Mostly Cloudy
9:54 AM 62.1 °F 52.0 °F 70% 29.92 in 10.0 mi West 5.8 mph - N/A   Overcast
10:54 AM 64.0 °F 50.0 °F 60% 29.91 in 10.0 mi WSW 4.6 mph - N/A   Overcast
11:54 AM 66.0 °F 52.0 °F 60% 29.91 in 10.0 mi WNW 8.1 mph - N/A   Mostly Cloudy
12:54 PM 64.9 °F 53.1 °F 65% 29.91 in 10.0 mi West 9.2 mph - N/A   Overcast
1:54 PM 64.9 °F 54.0 °F 68% 29.91 in 10.0 mi WNW 9.2 mph - 0.00 in Rain Light Rain
2:54 PM 66.0 °F 54.0 °F 65% 29.89 in 10.0 mi SW 5.8 mph - 0.00 in   Mostly Cloudy
3:54 PM 66.9 °F 54.0 °F 63% 29.89 in 10.0 mi WNW 9.2 mph - N/A   Mostly Cloudy
4:54 PM 69.1 °F 54.0 °F 58% 29.88 in 10.0 mi West 12.7 mph - N/A   Scattered Clouds
5:54 PM 70.0 °F 53.1 °F 55% 29.88 in 10.0 mi West 13.8 mph - N/A   Partly Cloudy
6:54 PM 66.9 °F 57.0 °F 70% 29.90 in 10.0 mi WSW 6.9 mph - N/A   Scattered Clouds
7:54 PM 68.0 °F 57.9 °F 70% 29.90 in 10.0 mi WSW 15.0 mph - N/A   Mostly Cloudy
8:54 PM 68.0 °F 55.0 °F 63% 29.92 in 10.0 mi West 11.5 mph - N/A   Overcast
9:17 PM 64.0 °F 55.9 °F 75% 29.94 in 10.0 mi North 11.5 mph 28.8 mph N/A   Overcast
9:54 PM 62.1 °F 57.0 °F 84% 29.95 in 10.0 mi North 6.9 mph - 0.00 in Rain Light Rain
10:54 PM 61.0 °F 55.9 °F 83% 29.95 in 10.0 mi SW 3.5 mph - 0.00 in   Scattered Clouds
11:54 PM 61.0 °F 55.0 °F 81% 29.96 in 10.0 mi WNW 6.9 mph - N/A   Scattered Clouds